User: anonymous   Login
Location: Deuil
(48.9767°N, 2.3272°E)
Time: 18:45:57
(UTC+00:00)
Language:

NOAA 16 - Orbit

View from above orbital plane
View from above orbital plane
View from above satellite
View from above satellite

Ground track
Ground track

The orbit data is extracted from the following two-line orbital elements,

1 26536U 00055A   22222.83814178  .00000022  00000-0  34465-4 0  9992
2 26536  98.6328 279.8538 0010726  16.8433 343.3094 14.13337695425035
Epoch (UTC): 10 August 2022 20:06:55
Eccentricity: 0.0010726
inclination: 98.6328°
perigee height: 840 km
apogee height: 856 km
right ascension of ascending node: 279.8538°
argument of perigee: 16.8433°
revolutions per day: 14.13337695
mean anomaly at epoch: 343.3094°
orbit number at epoch: 42503

The dashed part of the orbit path shows where the satellite is in the earth's shadow,  

DLR